Location: Unspecified
(54.1780°N, 0.0000°E)
Time: 01:36:07
(UTC+00:00)

Transit 2A - Pass Details

Date: 22 June 2019
Orbit: 596 x 962 km, 66.7° (Epoch: 16 August)

Event Time Altitude Azimuth Distance (km) Brightness Sun altitude
Rises 03:53:46 0° 278° (W) 3,640 9.1 2.2°
Reaches altitude 10° 03:56:49 10° 290° (WNW) 2,674 8.5 2.5°
Maximum altitude 04:02:03 27° 347° (NNW) 1,691 8.2 3.1°
Drops below altitude 10° 04:07:01 10° 44° (NE) 2,527 10.9 3.7°
Sets 04:09:49 0° 57° (ENE) 3,405 12.6 4.0°
